TimeMST,TemperatureF,Dew PointF,Humidity,Sea Level PressureIn,VisibilityMPH,Wind Direction,Wind SpeedMPH,Gust SpeedMPH,PrecipitationIn,Events,Conditions,WindDirDegrees,DateUTC
12:55 AM,68.0,28.4,23,29.84,10.0,West,19.6,-,N/A,,Partly Cloudy,260,2013-05-17 07:55:00
1:55 AM,66.2,26.6,23,29.84,10.0,West,10.4,-,N/A,,Clear,260,2013-05-17 08:55:00
2:55 AM,66.2,26.6,23,29.83,10.0,WSW,9.2,-,N/A,,Clear,240,2013-05-17 09:55:00
3:55 AM,62.6,26.6,26,29.85,10.0,Variable,5.8,-,N/A,,Clear,0,2013-05-17 10:55:00
4:55 AM,60.8,24.8,25,29.85,10.0,Variable,3.5,-,N/A,,Clear,0,2013-05-17 11:55:00
5:55 AM,60.8,24.8,25,29.88,10.0,Variable,5.8,-,N/A,,Partly Cloudy,0,2013-05-17 12:55:00
6:55 AM,64.4,26.6,24,29.88,10.0,Calm,Calm,-,N/A,,Partly Cloudy,0,2013-05-17 13:55:00
7:55 AM,69.8,26.6,20,29.88,10.0,NNE,3.5,-,N/A,,Partly Cloudy,30,2013-05-17 14:55:00
8:55 AM,75.2,24.8,15,29.88,10.0,NNW,8.1,-,N/A,,Partly Cloudy,330,2013-05-17 15:55:00
9:55 AM,75.2,15.8,11,29.88,10.0,Variable,4.6,-,N/A,,Partly Cloudy,0,2013-05-17 16:55:00
10:55 AM,82.4,3.2,5,29.86,10.0,SSW,11.5,17.3,N/A,,Partly Cloudy,200,2013-05-17 17:55:00
11:55 AM,84.2,10.4,6,29.85,10.0,SW,15.0,19.6,N/A,,Partly Cloudy,230,2013-05-17 18:55:00
12:55 PM,84.2,8.6,6,29.84,10.0,SW,16.1,23.0,N/A,,Partly Cloudy,230,2013-05-17 19:55:00
1:55 PM,84.2,10.4,6,29.84,10.0,SW,16.1,24.2,N/A,,Partly Cloudy,220,2013-05-17 20:55:00
2:55 PM,84.2,12.2,7,29.82,10.0,WSW,16.1,23.0,N/A,,Partly Cloudy,240,2013-05-17 21:55:00
3:55 PM,84.2,19.4,9,29.82,10.0,SSW,12.7,24.2,N/A,,Partly Cloudy,210,2013-05-17 22:55:00
4:55 PM,82.4,21.2,10,29.81,10.0,West,17.3,27.6,N/A,,Partly Cloudy,260,2013-05-17 23:55:00
5:55 PM,80.6,19.4,10,29.83,10.0,WSW,17.3,23.0,N/A,,Partly Cloudy,250,2013-05-18 00:55:00
6:55 PM,78.8,19.4,11,29.84,10.0,WSW,19.6,-,N/A,,Scattered Clouds,240,2013-05-18 01:55:00
7:55 PM,75.2,23.0,14,29.85,10.0,SW,15.0,23.0,N/A,,Mostly Cloudy,230,2013-05-18 02:55:00
8:55 PM,75.2,23.0,14,29.86,10.0,SW,11.5,-,N/A,,Mostly Cloudy,230,2013-05-18 03:55:00
9:55 PM,73.4,23.0,15,29.88,10.0,WSW,13.8,-,N/A,,Mostly Cloudy,250,2013-05-18 04:55:00
10:55 PM,71.6,23.0,16,29.86,10.0,WSW,16.1,-,N/A,,Mostly Cloudy,240,2013-05-18 05:55:00
11:56 PM,69.1,25.0,19,29.88,10.0,West,13.8,-,N/A,,Clear,260,2013-05-18 06:56:00